Wind_Speed
10 8 8 9 8 11 14 12 15 16 13 11 13 9 8 11 11 8 22 18 16 15 14 12 11 9 8 8 9 9 9 9 10 12 12 12 13 13 14 14 14 14 15 15 15 16 16 16 16
6 9 8 14 9 14 14 14 14 10 12 13 15 14 7 4 9 22 17 16 16 15 13 11 9 8 7 7 9 9 9 11 11 12 12 13 13 14 13 15 15 17 18 20 20 20 20 19 19
9 8 10 9 10 12 15 12 10 10 10 12 12 9 7 18 22 17 16 15 14 13 11 9 7 6 7 8 8 10 10 11 12 12 12 14 14 16 15 16 19 22 23 22 21 21 21 20 19
10 10 17 11 14 12 15 11 9 7 7 8 8 4 14 22 18 16 16 13 12 10 8 7 7 7 9 9 9 11 12 12 12 11 11 13 17 18 18 21 23 23 23 22 21 21 21 20 20
11 12 12 14 14 14 13 11 9 8 5 7 8 7 20 18 17 17 15 13 10 8 7 7 8 10 10 10 10 10 12 10 10 13 15 20 20 21 22 23 23 23 22 22 21 20 20 20 20
10 15 14 14 15 13 11 10 7 5 3 4 7 13 22 18 17 16 14 11 9 8 7 7 8 9 10 11 11 11 11 12 15 18 21 23 23 23 23 23 22 22 22 21 21 20 21 21 20
11 10 11 14 14 11 9 7 4 4 2 5 9 17 19 20 18 15 13 10 8 8 9 9 8 9 11 11 11 11 13 15 20 23 24 23 23 23 23 22 22 21 21 20 21 21 21 21 20
17 13 13 12 11 10 8 6 4 5 6 9 16 17 16 17 16 14 11 9 9 9 10 10 10 10 12 12 13 15 17 21 23 24 24 23 22 21 21 21 21 21 21 20 19 19 19 18 18
11 9 11 9 7 8 8 5 7 4 9 13 14 14 13 14 14 13 10 8 7 9 10 10 10 11 12 13 15 19 21 23 23 23 22 21 21 18 19 18 18 18 18 17 16 15 14 13 14
11 9 9 7 6 7 7 5 5 8 11 11 9 13 12 13 13 12 10 8 7 8 9 11 11 12 12 13 18 21 24 24 22 21 20 19 17 17 16 17 16 15 14 13 12 11 11 10 10
7 10 8 6 6 7 7 6 7 11 6 5 6 11 12 12 13 13 10 8 5 7 9 11 11 12 14 15 20 22 23 23 20 20 19 18 16 15 14 14 13 12 11 9 8 7 7 6 5
8 6 6 5 7 9 9 10 11 6 5 9 13 12 11 12 13 12 10 9 7 8 9 10 11 13 13 17 20 20 21 21 21 19 17 16 15 13 11 11 10 9 7 6 5 4 3 1 2
7 7 8 9 10 10 11 11 7 7 6 5 10 13 11 11 14 14 12 10 10 10 9 11 12 12 14 17 18 20 21 20 18 17 15 13 12 12 12 10 9 8 4 4 4 5 5 5 5
10 10 8 9 9 8 7 6 7 5 6 5 8 11 12 12 12 13 12 11 12 10 9 9 11 12 15 17 19 20 19 18 16 15 13 12 10 9 9 7 6 5 3 2 2 5 3 2 4
11 11 9 6 6 5 6 2 1 2 3 2 7 11 12 13 12 12 12 13 13 12 10 9 11 12 13 16 17 18 18 19 17 15 13 12 11 10 8 7 6 7 8 9 7 7 8 8 8
9 5 6 5 6 3 3 4 4 3 2 2 4 11 12 11 13 15 15 14 15 13 14 11 11 13 14 14 15 18 19 18 17 17 15 14 12 12 12 12 12 11 11 11 13 14 13 15 16
9 4 3 4 7 4 6 1 6 5 4 4 5 11 11 14 16 15 14 15 15 15 14 11 11 13 15 16 17 17 17 18 18 18 17 15 14 14 14 16 19 16 16 17 17 15 17 19 19
6 6 3 2 4 6 7 7 7 7 9 10 10 13 13 14 15 15 15 14 16 16 16 14 14 13 13 16 17 17 19 19 20 19 18 17 16 15 15 14 15 15 15 16 17 17 17 17 19
7 5 4 4 7 6 8 9 9 11 10 13 13 15 14 14 16 16 17 14 16 17 16 15 14 12 12 12 17 15 14 18 21 22 21 20 20 17 15 14 13 13 12 13 13 14 16 15 16
2 5 4 5 7 6 9 11 11 14 11 14 14 16 18 17 20 19 18 15 15 15 15 16 16 17 15 14 13 16 16 15 16 19 20 22 20 19 15 14 15 14 14 16 17 15 15 15 17
5 7 4 8 6 10 8 13 4 11 16 17 16 15 17 20 23 21 19 17 15 15 15 15 16 17 19 19 19 17 18 19 19 20 23 23 20 16 16 16 17 19 19 21 19 19 18 17 19
2 2 4 7 5 6 7 4 9 6 10 16 20 19 18 19 22 23 22 20 17 12 13 14 15 20 19 23 24 22 21 20 20 23 23 21 21 19 19 20 20 19 21 20 20 17 17 15 16
2 4 2 1 4 7 6 7 1 7 5 10 16 21 21 18 19 21 22 18 14 14 16 14 15 17 20 26 27 26 26 26 26 27 24 25 23 21 23 22 22 21 22 22 21 19 19 17 14
4 1 0 2 5 11 3 4 5 2 3 5 5 8 18 23 20 19 19 17 17 16 16 17 15 16 19 22 25 29 30 29 30 29 29 29 28 28 27 25 26 24 24 21 18 18 18 18 16
6 8 14 8 9 6 2 5 10 8 12 11 13 11 12 22 25 21 20 19 16 14 12 12 16 18 21 25 28 30 32 33 34 34 36 33 33 31 31 30 28 31 24 22 16 16 16 16 12
13 15 11 10 12 8 4 6 3 13 10 14 15 18 13 16 27 25 22 23 22 20 22 25 22 21 20 22 26 29 31 33 33 36 37 36 36 35 34 35 35 30 26 25 16 14 14 15 17
14 16 19 20 23 17 22 15 15 12 11 11 12 14 13 17 28 27 30 31 30 27 27 27 27 26 26 26 26 27 30 35 40 44 42 40 38 42 36 26 21 25 22 18 15 17 20 19 20
13 9 11 19 15 19 16 14 15 13 10 14 14 12 9 6 20 29 32 31 28 29 29 32 34 35 35 31 19 11 25 17 13 13 17 4 12 10 8 14 16 17 13 16 23 22 25 23 28
13 17 17 17 18 14 13 12 3 6 14 15 10 9 12 14 13 19 28 33 33 33 31 35 32 45 31 27 31 16 15 43 16 17 23 9 8 11 14 19 20 22 19 21 22 24 25 19 18
21 23 21 23 15 19 18 21 20 14 14 14 15 17 18 16 16 13 14 17 20 27 28 27 25 18 22 18 14 13 12 5 7 1 6 8 17 21 19 18 19 18 20 17 18 17 17 19 22
Wind_Direction
125 104 87 74 74 106 93 92 109 111 114 120 132 103 130 131 133 146 143 141 138 134 129 124 117 115 113 110 110 110 107 109 117 121 121 117 115 117 114 108 108 106 102 100 99 99 96 93 90
116 111 77 91 128 111 96 111 113 111 115 119 121 110 87 152 141 141 142 140 137 134 127 124 124 120 113 113 119 124 123 120 122 123 125 123 122 118 118 117 117 108 104 98 98 96 93 91 88
113 106 91 104 99 98 125 127 138 117 120 112 129 110 87 132 137 140 141 141 139 132 130 132 123 120 118 118 125 132 132 127 132 131 129 127 124 124 123 122 112 109 103 102 98 95 92 89 89
123 107 94 105 103 102 116 126 104 129 127 133 132 103 135 138 138 136 138 141 142 133 138 132 132 129 132 137 141 140 138 139 136 129 130 127 124 123 121 115 112 109 106 103 100 97 94 93 89
128 109 111 108 100 108 116 114 114 116 136 160 138 131 148 140 139 139 142 146 142 143 143 137 138 136 141 146 148 140 130 130 120 121 124 123 123 119 114 112 111 109 108 105 102 98 96 91 87
115 119 131 119 117 118 120 109 103 113 96 154 154 154 156 145 144 145 147 149 148 143 132 138 135 139 146 149 144 136 127 121 118 120 120 123 120 115 113 112 111 109 105 104 104 101 98 96 93
139 114 127 126 126 124 132 124 90 119 138 147 150 150 157 150 150 151 148 145 143 138 133 132 137 148 149 143 138 126 123 125 122 123 123 120 118 116 114 112 112 110 107 105 102 102 100 98 95
136 103 121 130 129 137 143 110 89 117 156 146 151 163 164 157 150 151 147 138 142 137 140 136 143 149 147 143 138 133 134 128 129 126 125 123 120 119 117 119 117 113 109 107 105 104 101 98 95
131 118 114 123 134 145 136 106 44 101 136 136 143 164 171 158 150 146 140 133 131 136 140 140 141 145 147 147 143 142 138 137 135 133 129 126 121 124 122 119 116 116 114 112 107 105 103 98 92
101 108 103 116 104 152 148 127 47 108 114 134 151 168 170 160 150 147 142 135 123 129 141 143 145 145 152 154 150 149 146 146 144 139 133 129 128 125 125 122 122 121 116 114 114 113 104 97 89
113 98 108 99 105 125 135 124 120 135 133 125 173 167 164 163 160 156 151 145 124 124 142 148 148 151 157 157 156 155 153 150 149 146 143 137 136 136 134 129 129 123 122 120 125 120 104 93 87
103 96 89 97 107 120 114 116 123 138 163 149 131 147 164 170 168 165 159 153 141 133 140 149 153 153 159 159 161 163 161 162 159 157 152 146 145 141 145 138 132 130 141 148 156 159 132 224 294
107 111 110 121 123 128 109 111 112 111 121 147 143 146 163 175 176 175 173 166 146 133 138 155 158 160 162 167 168 172 171 174 172 168 165 165 163 158 156 150 137 136 157 198 223 238 256 289 281
129 126 131 145 140 135 126 101 76 75 88 136 162 161 170 181 190 188 182 172 161 154 141 155 162 167 170 175 178 180 183 184 187 184 182 182 187 187 188 185 185 184 201 219 232 262 308 272 344
130 128 123 138 159 176 156 147 162 23 25 45 176 174 177 181 192 196 188 186 179 174 171 160 164 172 179 181 186 191 193 195 199 204 205 204 205 212 216 226 228 235 244 251 254 248 256 269 293
154 148 137 165 172 196 192 115 330 0 324 337 214 190 187 188 184 191 193 190 190 180 179 173 173 183 187 193 200 200 203 205 211 216 217 222 233 244 247 246 251 259 253 273 258 255 259 269 275
193 157 176 184 190 238 205 338 275 326 288 228 223 208 200 189 187 181 183 186 188 188 189 188 186 185 197 201 205 213 215 218 221 224 235 237 243 244 250 263 261 263 259 263 267 269 266 267 270
181 188 180 187 221 241 256 252 272 296 220 213 210 202 208 204 199 195 186 187 187 190 200 197 193 196 198 205 207 217 228 231 230 233 237 242 259 266 267 267 254 257 266 264 265 266 265 267 273
234 218 234 249 270 266 260 273 266 251 232 219 215 213 206 203 197 199 197 198 197 199 201 209 214 210 206 206 219 229 230 228 236 240 244 253 260 262 268 267 263 260 261 264 270 272 274 270 272
260 226 235 253 274 277 278 285 285 246 235 218 214 213 211 200 204 204 203 209 214 211 211 218 225 233 231 225 219 224 227 231 234 239 240 246 254 261 264 268 271 269 270 273 277 279 276 276 283
239 257 264 278 261 302 306 296 262 238 226 223 218 213 212 212 215 216 224 226 225 225 234 236 238 246 244 240 237 234 239 243 243 240 240 244 247 249 260 266 268 271 277 276 278 282 281 274 284
295 340 252 241 268 285 289 301 303 222 233 226 225 221 217 216 217 219 225 226 228 236 242 242 244 239 243 248 242 239 241 242 246 245 245 244 244 252 262 266 270 269 272 270 282 273 272 276 281
311 356 72 218 276 294 236 279 57 328 248 239 230 229 223 221 218 221 226 228 218 223 239 245 246 245 243 237 242 243 240 243 243 243 245 245 248 251 260 262 265 270 264 274 279 274 270 279 283
332 72 316 288 287 255 109 286 134 42 322 325 308 254 231 225 222 218 221 214 215 225 236 244 248 252 251 249 246 244 246 247 248 246 248 251 254 255 260 269 262 263 267 273 272 267 266 267 272
229 255 260 233 213 284 107 287 278 313 323 311 319 295 274 218 211 209 210 217 221 227 239 253 249 244 238 236 238 242 245 248 251 246 246 250 254 256 260 268 267 255 265 264 257 259 262 267 271
253 270 278 296 292 310 168 270 290 305 310 310 308 308 287 231 209 209 214 220 222 225 233 237 246 253 251 251 249 249 251 253 257 256 252 251 257 260 261 264 269 246 248 257 253 253 259 263 274
252 243 259 268 258 268 278 270 288 281 292 292 294 307 306 244 210 216 215 225 221 226 235 244 250 250 254 253 256 257 261 256 254 259 243 245 255 254 257 271 253 252 254 252 254 269 274 271 277
231 264 249 236 259 273 268 269 268 284 276 278 282 288 301 254 231 231 226 230 231 238 252 261 260 257 250 243 241 230 254 340 330 251 351 238 202 280 297 277 285 278 276 256 261 278 268 275 285
235 247 249 269 279 293 288 282 346 273 274 274 282 290 285 276 251 232 229 235 239 242 250 262 269 280 271 290 308 348 287 273 282 322 328 356 320 270 263 276 284 280 249 250 262 274 275 273 277
258 262 260 259 258 249 271 279 281 277 262 266 267 276 281 267 251 239 238 239 245 244 252 267 274 280 279 300 311 294 308 280 254 259 247 273 283 273 275 285 272 272 270 265 277 271 271 281 296
Height
3176 3177 3177 3177 3184 3182 3184 3189 3188 3189 3190 3190 3190 3193 3195 3193 3195 3200 3197 3198 3199 3200 3201 3202 3203 3203 3203 3203 3204 3204 3204 3204 3204 3205 3205 3206 3207 3207 3208 3209 3209 3210 3210 3211 3212 3212 3212 3212 3213
3177 3178 3179 3180 3183 3184 3189 3190 3191 3191 3190 3191 3192 3194 3195 3195 3194 3196 3199 3200 3201 3202 3202 3203 3204 3204 3204 3204 3205 3205 3206 3206 3206 3206 3207 3208 3209 3209 3211 3211 3211 3212 3214 3215 3215 3215 3216 3216 3216
3179 3180 3182 3184 3183 3186 3189 3192 3191 3191 3191 3193 3194 3195 3194 3195 3196 3198 3200 3201 3203 3203 3203 3204 3205 3205 3205 3205 3205 3206 3207 3207 3208 3208 3209 3210 3210 3211 3212 3213 3215 3216 3218 3218 3218 3219 3220 3219 3220
3182 3184 3186 3186 3188 3190 3189 3190 3191 3191 3193 3194 3195 3195 3196 3196 3198 3200 3201 3203 3204 3205 3205 3206 3206 3206 3206 3207 3207 3208 3208 3208 3209 3210 3212 3212 3213 3214 3215 3218 3219 3220 3221 3221 3222 3223 3224 3224 3223
3183 3184 3188 3188 3190 3192 3193 3192 3193 3195 3194 3195 3196 3196 3197 3198 3200 3201 3203 3204 3206 3206 3206 3207 3207 3208 3208 3209 3209 3210 3210 3211 3212 3213 3214 3215 3217 3218 3220 3222 3223 3223 3224 3225 3225 3226 3227 3227 3226
3185 3186 3189 3189 3192 3193 3194 3194 3195 3195 3195 3196 3196 3196 3198 3200 3201 3203 3205 3206 3207 3207 3208 3208 3209 3210 3210 3210 3211 3212 3213 3214 3215 3216 3218 3220 3221 3223 3224 3225 3227 3227 3228 3228 3229 3229 3230 3230 3230
3186 3189 3190 3192 3194 3196 3196 3196 3198 3196 3195 3196 3197 3199 3200 3201 3203 3205 3206 3208 3208 3209 3209 3210 3211 3211 3212 3212 3213 3215 3216 3217 3219 3220 3221 3224 3226 3227 3228 3229 3230 3231 3231 3232 3233 3233 3233 3233 3233
3189 3192 3193 3194 3195 3198 3196 3197 3196 3198 3197 3197 3198 3201 3202 3203 3205 3207 3208 3210 3210 3211 3211 3212 3213 3213 3214 3215 3216 3217 3218 3221 3222 3224 3226 3228 3229 3231 3232 3233 3233 3233 3234 3235 3236 3237 3237 3236 3236
3191 3194 3195 3196 3196 3198 3197 3198 3197 3196 3197 3198 3200 3202 3204 3205 3207 3209 3211 3212 3212 3213 3213 3214 3214 3215 3216 3217 3219 3219 3221 3224 3226 3227 3230 3231 3232 3235 3235 3237 3238 3238 3238 3238 3240 3240 3240 3240 3239
3194 3195 3197 3198 3198 3199 3199 3201 3198 3199 3200 3201 3202 3203 3205 3207 3209 3211 3212 3213 3214 3215 3215 3216 3217 3217 3218 3220 3221 3221 3224 3226 3228 3231 3233 3234 3236 3237 3239 3239 3240 3241 3241 3241 3242 3242 3242 3242 3241
3196 3197 3198 3199 3200 3200 3200 3200 3200 3202 3203 3202 3202 3204 3206 3208 3210 3212 3213 3215 3216 3216 3217 3217 3218 3219 3220 3221 3224 3225 3227 3228 3231 3233 3235 3236 3238 3239 3241 3242 3242 3243 3243 3243 3243 3243 3243 3243 3242
3200 3199 3200 3200 3201 3201 3201 3201 3202 3203 3205 3203 3203 3205 3207 3209 3211 3213 3215 3216 3216 3217 3218 3219 3219 3221 3222 3223 3226 3228 3229 3231 3232 3234 3236 3238 3240 3241 3242 3244 3244 3244 3244 3244 3244 3244 3244 3243 3242
3200 3201 3202 3202 3202 3204 3203 3204 3204 3203 3203 3204 3204 3205 3208 3210 3212 3214 3215 3216 3217 3218 3219 3220 3220 3221 3223 3225 3227 3228 3230 3233 3235 3237 3238 3239 3240 3242 3242 3243 3244 3245 3244 3244 3244 3244 3243 3243 3242
3200 3202 3202 3203 3204 3204 3205 3205 3205 3206 3205 3204 3205 3206 3208 3210 3212 3214 3215 3217 3217 3219 3220 3220 3221 3223 3224 3226 3228 3229 3232 3234 3236 3238 3239 3240 3241 3242 3243 3244 3245 3245 3245 3245 3244 3243 3243 3242 3241
3203 3204 3204 3205 3205 3206 3206 3207 3207 3206 3206 3205 3205 3206 3208 3210 3212 3214 3215 3217 3218 3218 3220 3221 3222 3224 3226 3227 3229 3231 3233 3234 3236 3238 3239 3240 3241 3242 3242 3243 3244 3245 3244 3244 3244 3243 3242 3241 3240
3205 3205 3205 3205 3206 3206 3207 3206 3205 3205 3205 3205 3205 3206 3208 3209 3211 3213 3214 3216 3217 3218 3220 3221 3223 3224 3226 3228 3229 3231 3232 3234 3236 3236 3238 3240 3241 3242 3242 3242 3242 3243 3243 3243 3243 3242 3241 3240 3239
3204 3203 3205 3206 3206 3206 3208 3208 3205 3204 3204 3204 3204 3206 3207 3209 3210 3212 3213 3215 3216 3218 3219 3221 3223 3224 3225 3227 3228 3230 3232 3234 3235 3235 3236 3237 3238 3239 3240 3240 3240 3240 3240 3240 3240 3240 3239 3238 3237
3201 3203 3204 3205 3207 3206 3207 3207 3206 3204 3204 3205 3204 3205 3206 3208 3210 3211 3212 3214 3215 3216 3218 3220 3221 3223 3224 3226 3228 3229 3231 3232 3233 3234 3235 3236 3236 3237 3237 3236 3236 3238 3238 3238 3237 3236 3235 3235 3234
3202 3203 3204 3205 3204 3206 3205 3205 3206 3203 3203 3205 3204 3203 3205 3208 3210 3210 3211 3213 3214 3215 3217 3219 3220 3222 3224 3225 3227 3228 3229 3229 3231 3231 3232 3233 3233 3234 3234 3234 3233 3234 3234 3234 3233 3233 3232 3231 3229
3201 3201 3202 3203 3202 3203 3203 3202 3203 3202 3201 3203 3203 3204 3204 3207 3208 3208 3210 3211 3213 3214 3215 3217 3219 3220 3222 3223 3224 3225 3226 3228 3228 3227 3229 3229 3230 3230 3229 3230 3230 3230 3230 3230 3229 3229 3229 3228 3226
3200 3200 3200 3202 3201 3200 3199 3198 3198 3198 3198 3200 3201 3202 3203 3205 3206 3207 3207 3209 3211 3212 3214 3215 3216 3218 3219 3221 3222 3223 3223 3224 3225 3224 3224 3225 3225 3226 3225 3225 3225 3225 3225 3224 3225 3224 3224 3223 3222
3197 3199 3199 3201 3201 3198 3199 3195 3194 3195 3195 3195 3197 3199 3200 3201 3203 3205 3205 3207 3208 3211 3211 3212 3213 3214 3215 3216 3218 3220 3221 3221 3222 3221 3220 3220 3220 3221 3222 3222 3222 3221 3221 3219 3219 3219 3219 3219 3218
3199 3197 3198 3198 3199 3198 3196 3196 3192 3192 3193 3193 3194 3196 3197 3198 3200 3202 3203 3205 3207 3208 3208 3209 3209 3209 3211 3212 3214 3215 3217 3217 3216 3215 3216 3215 3216 3216 3217 3218 3217 3216 3216 3215 3214 3214 3215 3214 3213
3197 3198 3197 3197 3197 3191 3192 3195 3189 3192 3193 3192 3192 3192 3194 3196 3198 3200 3202 3203 3204 3205 3206 3206 3205 3206 3206 3207 3209 3210 3212 3212 3211 3211 3211 3210 3210 3210 3211 3212 3211 3211 3211 3210 3209 3209 3210 3209 3209
3198 3198 3192 3189 3186 3183 3191 3194 3190 3191 3190 3189 3190 3190 3189 3190 3193 3196 3198 3200 3202 3203 3203 3202 3201 3200 3201 3200 3200 3201 3203 3204 3205 3205 3202 3204 3204 3204 3205 3206 3205 3205 3205 3205 3204 3204 3204 3205 3204
3196 3196 3194 3193 3183 3179 3188 3189 3189 3189 3189 3188 3187 3186 3185 3185 3190 3193 3196 3197 3198 3198 3198 3196 3193 3196 3196 3197 3197 3198 3200 3199 3198 3197 3196 3197 3198 3198 3198 3199 3198 3196 3197 3196 3199 3200 3199 3199 3200
3192 3194 3193 3189 3187 3186 3184 3184 3186 3186 3186 3185 3185 3184 3182 3182 3183 3189 3189 3189 3191 3191 3189 3190 3190 3190 3191 3192 3193 3193 3193 3191 3190 3185 3176 3179 3187 3188 3188 3190 3190 3191 3189 3189 3194 3196 3196 3194 3194
3189 3190 3189 3186 3185 3181 3177 3178 3181 3182 3183 3181 3181 3181 3180 3179 3180 3182 3184 3187 3189 3189 3189 3187 3186 3186 3183 3183 3184 3184 3190 3186 3182 3175 3169 3171 3173 3179 3182 3187 3187 3186 3187 3189 3190 3190 3191 3190 3188
3185 3186 3186 3185 3183 3178 3175 3174 3176 3179 3179 3178 3177 3177 3177 3177 3177 3176 3179 3181 3182 3182 3181 3180 3178 3174 3164 3182 3174 3168 3181 3182 3180 3176 3173 3176 3175 3178 3181 3181 3182 3182 3179 3181 3184 3182 3183 3183 3182
3181 3180 3180 3178 3178 3176 3177 3176 3173 3174 3175 3175 3174 3173 3172 3172 3173 3173 3173 3175 3176 3176 3176 3177 3175 3175 3176 3174 3170 3172 3177 3174 3173 3171 3173 3172 3175 3177 3176 3176 3178 3176 3176 3176 3176 3175 3175 3177 3177